Olive Branch, MS

11:21 AM CST on February 23, 2017 (GMT -0600)
Olive Branch

Weather History for KOLV - February, 2013

Change the Weather History Date:

Sunday, February 3, 2013

  Actual Average (KMEM) Record (KMEM)
Temperature  
Mean Temperature 42 °F -  
Max Temperature 51 °F 49 °F 76 °F (1883)
Min Temperature 32 °F 32 °F 4 °F (1996)
Degree Days  
Heating Degree Days 24    
Moisture  
Dew Point 31 °F    
Average Humidity 75    
Maximum Humidity 100    
Minimum Humidity 43    
Precipitation  
Precipitation 0.00 in - - ()
Sea Level Pressure  
Sea Level Pressure 30.16 in    
Wind  
Wind Speed 6 mph (WSW)    
Max Wind Speed 14 mph    
Max Gust Speed 25 mph    
Visibility 10 miles    
Events      
Averages and records for this station are not official NWS values.
T = Trace of Precipitation, MM = Missing Value Source: NWS Daily Summary

Daily Weather History Graph

Daily Weather History Graph

Search for Another Location

Airport or City:

Trip Planner

Search our weather history database for the weather conditions in past years. The results will help you decide how hot, cold, wet, or windy it might be!

Date:

Astronomy

Feb. 03, 2013 Rise Set
Actual Time 6:56 AM CST 5:30 PM CST
Civil Twilight 6:29 AM CST 5:56 PM CST
Nautical Twilight 5:59 AM CST 6:26 PM CST
Astronomical Twilight 5:29 AM CST 6:56 PM CST
Moon 12:23 AM CST (2/3) 11:08 AM CST (2/3)
Length of Visible Light 11h 27m
Length of Day
10h 34m
Waning Gibbous, 48% of the Moon is Illuminated
Feb 3
Waning Gibbous
Feb 10
New
Feb 17
First Quarter
Feb 25
Full
Mar 4
Last Quarter

Hourly Weather History & Observations

Time (CST) Temp. Windchill Dew Point Humidity Pressure Visibility Wind Dir Wind Speed Gust Speed Precip Events Conditions
12:15 AM 35.6 °F 30.7 °F 35.6 °F 100% 30.18 in 9.0 mi SW 5.8 mph - 0.00 in   Clear
12:35 AM 33.8 °F 27.7 °F 33.8 °F 100% 30.18 in 8.0 mi SW 6.9 mph - 0.00 in   Clear
12:55 AM 33.8 °F 27.7 °F 33.8 °F 100% 30.18 in 10.0 mi SW 6.9 mph - 0.00 in   Clear
1:15 AM 33.8 °F 28.6 °F 33.8 °F 100% 30.18 in 10.0 mi SW 5.8 mph - 0.00 in   Clear
1:35 AM 33.8 °F 27.7 °F 33.8 °F 100% 30.18 in 9.0 mi SW 6.9 mph - 0.00 in   Clear
1:55 AM 32.0 °F 24.8 °F 32.0 °F 100% 30.17 in 10.0 mi SSW 8.1 mph - 0.00 in   Clear
2:35 AM 33.8 °F 26.4 °F 33.8 °F 100% 30.15 in 10.0 mi SSW 9.2 mph - 0.00 in   Clear
2:55 AM 35.6 °F 28.6 °F 35.6 °F 100% 30.15 in 10.0 mi SW 9.2 mph - 0.00 in   Clear
3:15 AM 35.6 °F 29.2 °F 35.6 °F 100% 30.15 in 10.0 mi SW 8.1 mph - 0.00 in   Clear
3:35 AM 33.8 °F 27.7 °F 33.8 °F 100% 30.14 in 6.0 mi SW 6.9 mph - 0.00 in   Clear
3:55 AM 33.8 °F 27.0 °F 33.8 °F 100% 30.14 in 8.0 mi SW 8.1 mph - 0.00 in   Clear
4:15 AM 37.4 °F 30.8 °F 35.6 °F 93% 30.13 in 10.0 mi SW 9.2 mph - 0.00 in   Clear
4:35 AM 37.4 °F 30.8 °F 35.6 °F 93% 30.12 in 9.0 mi SW 9.2 mph - 0.00 in   Clear
4:55 AM 39.2 °F 34.2 °F 33.8 °F 81% 30.12 in 9.0 mi SW 6.9 mph - 0.00 in   Clear
5:15 AM 39.2 °F 34.2 °F 33.8 °F 81% 30.12 in 9.0 mi WSW 6.9 mph - 0.00 in   Clear
5:35 AM 39.2 °F 33.6 °F 33.8 °F 81% 30.14 in 10.0 mi West 8.1 mph - 0.00 in   Clear
5:55 AM 39.2 °F 32.5 °F 33.8 °F 81% 30.14 in 9.0 mi West 10.4 mph - N/A   Clear
6:50 AM 39.2 °F 35.0 °F 33.8 °F 81% 30.16 in 10.0 mi NNW 5.8 mph - N/A   Clear
7:50 AM 41.0 °F 39.0 °F 33.8 °F 76% 30.18 in 10.0 mi WNW 3.5 mph - N/A   Clear
9:50 AM 48.2 °F - 32.0 °F 54% 30.19 in 10.0 mi WNW 11.5 mph - N/A   Clear
11:50 AM 51.8 °F - 32.0 °F 47% 30.19 in 10.0 mi WNW 11.5 mph 23.0 mph N/A   Partly Cloudy
12:50 PM 51.8 °F - 30.2 °F 44% 30.17 in 10.0 mi WNW 13.8 mph 25.3 mph N/A   Partly Cloudy
1:50 PM 51.8 °F - 30.2 °F 44% 30.16 in 10.0 mi NW 9.2 mph 20.7 mph N/A   Partly Cloudy
2:50 PM 51.8 °F - 30.2 °F 44% 30.17 in 10.0 mi West 11.5 mph 23.0 mph N/A   Scattered Clouds
3:50 PM 51.8 °F - 30.2 °F 44% 30.17 in 10.0 mi NNW 11.5 mph 23.0 mph N/A   Partly Cloudy
4:45 PM 48.2 °F - 26.6 °F 43% 30.17 in 10.0 mi NW 12.7 mph - N/A   Scattered Clouds
5:55 PM 42.8 °F 38.6 °F 26.6 °F 53% 30.15 in 10.0 mi NW 6.9 mph - N/A   Scattered Clouds
6:55 PM 42.8 °F 40.1 °F 26.6 °F 53% 30.16 in 10.0 mi NE 4.6 mph - N/A   Scattered Clouds
7:50 PM 41.0 °F - 26.6 °F 57% 30.16 in 10.0 mi Calm Calm - N/A   Partly Cloudy
8:15 PM 41.0 °F - 26.6 °F 57% 30.16 in 10.0 mi Calm Calm - 0.00 in   Clear
8:35 PM 39.2 °F - 28.4 °F 65% 30.17 in 8.0 mi Calm Calm - 0.00 in   Clear
8:55 PM 39.2 °F - 26.6 °F 61% 30.16 in 10.0 mi Calm Calm - 0.00 in   Clear
9:15 PM 37.4 °F - 28.4 °F 70% 30.17 in 9.0 mi Calm Calm - 0.00 in   Clear
9:35 PM 37.4 °F - 28.4 °F 70% 30.16 in 10.0 mi Calm Calm - 0.00 in   Clear
9:55 PM 37.4 °F - 28.4 °F 70% 30.16 in 10.0 mi Calm Calm - 0.00 in   Clear
10:15 PM 35.6 °F - 28.4 °F 75% 30.16 in 10.0 mi Calm Calm - 0.00 in   Clear
10:35 PM 35.6 °F - 28.4 °F 75% 30.16 in 10.0 mi Calm Calm - 0.00 in   Clear
10:55 PM 37.4 °F - 28.4 °F 70% 30.15 in 10.0 mi Calm Calm - 0.00 in   Clear
11:15 PM 37.4 °F - 28.4 °F 70% 30.15 in 9.0 mi Calm Calm - 0.00 in   Clear
11:35 PM 35.6 °F - 30.2 °F 81% 30.14 in 10.0 mi Calm Calm - 0.00 in   Clear
11:55 PM 35.6 °F - 30.2 °F 81% 30.13 in 9.0 mi Calm Calm - 0.00 in   Clear